Alexandria, MN

9:47 AM CDT on May 29, 2017 (GMT -0500)
Chandler

Weather History for KAXN - June, 2014

Change the Weather History Date:

Monday, June 9, 2014

  Actual Average Record
Temperature  
Mean Temperature 64 °F -  
Max Temperature 73 °F 74 °F 95 °F (1973)
Min Temperature 55 °F 52 °F 39 °F (1989)
Degree Days  
Heating Degree Days 2    
Growing Degree Days 14 (Base 50)    
Moisture  
Dew Point 47 °F    
Average Humidity 55    
Maximum Humidity 81    
Minimum Humidity 34    
Precipitation  
Precipitation 0.00 in - - ()
Sea Level Pressure  
Sea Level Pressure 30.02 in    
Wind  
Wind Speed 3 mph (SSW)    
Max Wind Speed 12 mph    
Max Gust Speed -    
Visibility 10 miles    
Events      
Averages and records for this station are not official NWS values.
T = Trace of Precipitation, MM = Missing Value Source: NWS Daily Summary

Daily Weather History Graph

Daily Weather History Graph

Search for Another Location

Airport or City:

Trip Planner

Search our weather history database for the weather conditions in past years. The results will help you decide how hot, cold, wet, or windy it might be!

Date:

Astronomy

Jun. 09, 2014 Rise Set
Actual Time 5:31 AM CDT 9:10 PM CDT
Civil Twilight 4:53 AM CDT 9:48 PM CDT
Nautical Twilight 4:02 AM CDT 10:39 PM CDT
Astronomical Twilight 2:54 AM CDT 11:48 PM CDT
Moon 5:22 PM CDT (6/9) 3:11 AM CDT (6/9)
Length of Visible Light 16h 55m
Length of Day
15h 38m
Waxing Gibbous, 85% of the Moon is Illuminated
Jun 9
Waxing Gibbous
Jun 12
Full
Jun 19
Last Quarter
Jun 27
New
Jul 5
First Quarter

Hourly Weather History & Observations

Time (CDT) Temp. Dew Point Humidity Pressure Visibility Wind Dir Wind Speed Gust Speed Precip Events Conditions
12:53 AM 61.0 °F 46.0 °F 58% 30.06 in 10.0 mi Calm Calm - N/A   Clear
1:53 AM 59.0 °F 50.0 °F 72% 30.06 in 10.0 mi South 3.5 mph - N/A   Partly Cloudy
2:53 AM 60.1 °F 48.0 °F 64% 30.04 in 10.0 mi Calm Calm - N/A   Clear
3:53 AM 60.1 °F 48.9 °F 67% 30.04 in 10.0 mi Calm Calm - N/A   Overcast
4:53 AM 57.0 °F 51.1 °F 81% 30.05 in 10.0 mi SW 3.5 mph - N/A   Overcast
5:53 AM 55.9 °F 50.0 °F 80% 30.05 in 10.0 mi Calm Calm - N/A   Partly Cloudy
6:53 AM 57.0 °F 50.0 °F 77% 30.06 in 10.0 mi South 3.5 mph - N/A   Clear
7:53 AM 60.1 °F 50.0 °F 69% 30.05 in 10.0 mi South 6.9 mph - N/A   Clear
8:53 AM 62.1 °F 48.9 °F 62% 30.05 in 10.0 mi SSW 5.8 mph - N/A   Clear
10:53 AM 64.0 °F 50.0 °F 60% 30.06 in 10.0 mi SSW 10.4 mph - N/A   Clear
11:53 AM 66.0 °F 48.9 °F 54% 30.05 in 10.0 mi WSW 10.4 mph - N/A   Clear
1:53 PM 69.1 °F 46.9 °F 45% 30.03 in 10.0 mi WSW 11.5 mph - N/A   Clear
2:53 PM 70.0 °F 44.1 °F 39% 30.01 in 10.0 mi Variable 5.8 mph - N/A   Partly Cloudy
3:53 PM 71.1 °F 45.0 °F 39% 30.00 in 10.0 mi Variable 5.8 mph - N/A   Partly Cloudy
4:53 PM 71.1 °F 44.1 °F 38% 30.00 in 10.0 mi Variable 5.8 mph - N/A   Clear
5:53 PM 72.0 °F 42.1 °F 34% 29.99 in 10.0 mi Calm Calm - N/A   Clear
6:53 PM 71.1 °F 42.1 °F 35% 29.98 in 10.0 mi Calm Calm - N/A   Clear
7:00 PM 71.6 °F 42.8 °F 35% 29.98 in 10.0 mi WNW 4.6 mph - N/A   Partly Cloudy
7:53 PM 71.1 °F 43.0 °F 36% 29.97 in 10.0 mi Calm Calm - N/A   Clear
8:53 PM 66.9 °F 45.0 °F 45% 29.97 in 10.0 mi South 4.6 mph - N/A   Clear
9:53 PM 64.0 °F 46.0 °F 52% 29.98 in 10.0 mi South 4.6 mph - N/A   Clear
10:53 PM 62.1 °F 48.0 °F 60% 29.99 in 10.0 mi South 6.9 mph - N/A   Clear
11:53 PM 60.1 °F 46.9 °F 62% 29.98 in 10.0 mi South 5.8 mph - N/A   Clear